Flag for Canada Weather past 2 weeks in Rankin Inlet, Nunavut Territory, Canada

Now
14 °F

Clear.


Feels Like: 2 °F
Forecast: 3 / 21 °F
Wind: 9 mph from West

Location: Rankin Inlet


UV Index: 0 (Low)

Visibility: 15 mi


Pressure: 30.03 "Hg

Humidity: 85%

Dew point: 10 °F

Location of Rankin InletLocation

Historic Weather in Rankin Inlet

°F

Rankin Inlet temperature yesterday

Maximum temperature yesterday: 25 °F (at 6:00 PM)
Minimum temperature yesterday: 7 °F (at 5:00 AM)
Average temperature yesterday: 14 °F

Past Weeks' High & Low Weather Summary

 TemperatureHumidityPressure
High25 °F (Apr 20, 6:00 PM)93% (Apr 20, 1:00 PM)30.36 "Hg (Apr 20, 1:00 PM)
Low-18 °F (Apr 8, 7:00 AM)67% (Apr 16, 2:00 PM)29.48 "Hg (Apr 11, 3:00 AM)
Average-2 °F77%29.90 "Hg
* Reported Midnight between Apr 5 and Apr 6 — Midnight between Apr 20 and Apr 21, Rankin Inlet, Weather by CustomWeather, © 2014

Note: Actual official high and low records may vary slightly from our data, if they occured in-between our weather recording intervals... More about our weather records

Advertising

Historic Weather Conditions — Data for Previous 24 hours

 ConditionsComfort  
Time TempWeatherWind HumidityBarometerVisibility
12:00 AM
Apr 21
14 °FClear.9 mph85%30.03 "Hg15 mi
11:00 PM
Apr 20
16 °FClear.7 mph86%30.04 "Hg15 mi
10:00 PM18 °FPassing clouds.6 mph86%30.05 "Hg15 mi
9:00 PM19 °FClear.6 mph79%30.05 "Hg15 mi
8:00 PM21 °FSunny.7 mph86%30.04 "Hg15 mi
7:00 PM23 °FSunny.7 mph80%30.05 "Hg15 mi
6:00 PM25 °FSunny.5 mph80%30.05 "Hg15 mi
5:00 PM23 °FPassing clouds.6 mph80%30.06 "Hg15 mi
4:00 PM21 °FPassing clouds.7 mph93%30.06 "Hg15 mi
3:00 PM19 °FPassing clouds.6 mph93%30.05 "Hg15 mi
2:00 PM18 °FPassing clouds.3 mph93%30.05 "Hg15 mi
1:00 PM16 °FPassing clouds.3 mph93%30.06 "Hg15 mi
12:00 PM12 °FPassing clouds.2 mph92%30.06 "Hg15 mi
11:00 AM12 °FSunny.3 mph85%30.06 "Hg15 mi
10:00 AM9 °FSunny.5 mph85%30.05 "Hg15 mi
9:00 AM7 °FIce fog.2 mph85%30.06 "Hg6 mi
8:49 AM7 °FIce fog.No wind85%30.06 "Hg5 mi
8:00 AM7 °FIce fog.No wind85%30.06 "Hg1 mi
7:00 AM7 °FIce fog.3 mph85%30.07 "Hg0 mi
6:00 AM7 °FIce fog.2 mph85%30.07 "Hg0 mi
5:00 AM7 °FIce fog.3 mph85%30.07 "Hg0 mi
4:00 AM10 °FIce fog.3 mph85%30.07 "Hg0 mi
3:00 AM12 °FIce fog.7 mph85%30.08 "Hg0 mi
2:00 AM12 °FIce fog.8 mph92%30.09 "Hg0 mi
1:00 AM10 °FIce fog.7 mph92%30.09 "Hg1 mi
Weather by CustomWeather, © 2014

See weather overview